Point Lay, AK

5:47 PM AKDT on April 24, 2018 (GMT -0800)
Point Lay

Weather History for PPIZ - January, 2013

Change the Weather History Date:

Monday, January 7, 2013

  Actual Average Record
Temperature  
Mean Temperature -22 °F -  
Max Temperature -18 °F -6 °F 26 °F (2017)
Min Temperature -25 °F -14 °F -40 °F (2008)
Degree Days  
Heating Degree Days 86    
Moisture  
Dew Point -29 °F    
Average Humidity 74    
Maximum Humidity 76    
Minimum Humidity 69    
Precipitation  
Precipitation 0.00 in - - ()
Sea Level Pressure  
Sea Level Pressure 29.83 in    
Wind  
Wind Speed 15 mph (NE)    
Max Wind Speed 18 mph    
Max Gust Speed -    
Visibility 4 miles    
Events      
Averages and records for this station are not official NWS values.
T = Trace of Precipitation, MM = Missing Value Source: NWS Daily Summary

Daily Weather History Graph

Daily Weather History Graph

Search for Another Location

Airport or City:

Astronomy

Jan. 07, 2013 Rise Set
Actual Time 1:26 PM AKST 2:31 PM AKST
Civil Twilight 11:24 AM AKST 4:33 PM AKST
Nautical Twilight 9:48 AM AKST 6:09 PM AKST
Astronomical Twilight 8:31 AM AKST 7:25 PM AKST
Moon 8:13 AM AKST (1/7) 11:35 AM AKST (1/7)
Length of Visible Light 5h 08m
Length of Day
1h 04m
Waning Crescent, 21% of the Moon is Illuminated
Jan 7
Waning Crescent
Jan 11
New
Jan 18
First Quarter
Jan 26
Full
Feb 3
Last Quarter

Hourly Weather History & Observations

Time (AKST) Temp. Windchill Dew Point Humidity Pressure Visibility Wind Dir Wind Speed Gust Speed Precip Events Conditions
12:56 AM -22.0 °F -48.4 °F -27.9 °F 74% 29.83 in - NE 16.1 mph - N/A   Clear
1:56 AM -22.9 °F -48.7 °F -29.9 °F 70% 29.82 in - NE 15.0 mph - N/A   Clear
2:56 AM -22.9 °F -47.8 °F -28.8 °F 74% 29.81 in 4.0 mi NE 13.8 mph - N/A   Haze
3:06 AM -23.8 °F -48.9 °F -29.2 °F 76% 29.80 in 3.0 mi NE 13.8 mph - N/A   Haze
3:16 AM -23.8 °F -48.0 °F -29.2 °F 76% 29.80 in 3.0 mi ENE 12.7 mph - N/A   Haze
3:45 AM -22.0 °F -45.7 °F -27.4 °F 76% 29.79 in 3.0 mi ENE 12.7 mph - N/A   Haze
3:56 AM -22.0 °F -45.7 °F -27.9 °F 74% 29.81 in 4.0 mi ENE 12.7 mph - N/A   Haze
4:24 AM -22.0 °F -46.6 °F -27.4 °F 76% 29.78 in 4.0 mi ENE 13.8 mph - N/A   Haze
4:56 AM -22.9 °F -46.8 °F -28.8 °F 74% 29.80 in 3.0 mi NE 12.7 mph - N/A   Haze
5:46 AM -23.8 °F -50.7 °F -29.2 °F 76% 29.78 in 2.5 mi NE 16.1 mph - N/A   Haze
5:56 AM -23.8 °F -49.8 °F -29.2 °F 76% 29.79 in 2.5 mi ENE 15.0 mph - N/A   Haze
6:20 AM -23.8 °F -48.9 °F -31.0 °F 69% 29.79 in 3.0 mi NE 13.8 mph - N/A   Haze
6:56 AM -24.0 °F -50.9 °F -29.9 °F 74% 29.80 in 3.0 mi NE 16.1 mph - N/A   Haze
7:21 AM -23.8 °F -48.9 °F -29.2 °F 76% 29.79 in 3.0 mi NE 13.8 mph - N/A   Haze
7:33 AM -23.8 °F -48.9 °F -31.0 °F 69% 29.79 in 2.5 mi NE 13.8 mph - N/A   Haze
7:56 AM -24.0 °F -50.1 °F -31.0 °F 70% 29.81 in 2.0 mi NE 15.0 mph - N/A   Haze
8:07 AM -23.8 °F -49.8 °F -31.0 °F 69% 29.80 in 1.8 mi NE 15.0 mph - N/A   Haze
8:56 AM -23.8 °F -50.7 °F -29.2 °F 76% 29.80 in 1.5 mi NE 16.1 mph - N/A   Haze
9:17 AM -23.8 °F -50.7 °F -29.2 °F 76% 29.80 in 1.2 mi ENE 16.1 mph - N/A   Haze
9:30 AM -23.8 °F -49.8 °F -29.2 °F 76% 29.80 in 1.5 mi ENE 15.0 mph - N/A   Haze
9:56 AM -22.9 °F -47.8 °F -28.8 °F 74% 29.82 in 1.5 mi ENE 13.8 mph - N/A   Haze
10:56 AM -22.9 °F -47.8 °F -29.9 °F 70% 29.82 in 2.5 mi ENE 13.8 mph - N/A   Haze
11:41 AM -23.8 °F -49.8 °F -29.2 °F 76% 29.82 in 1.8 mi NE 15.0 mph - N/A   Haze
11:56 AM -23.8 °F -49.8 °F -29.2 °F 76% 29.82 in 1.8 mi ENE 15.0 mph - N/A   Haze
12:06 PM -23.8 °F -49.8 °F -29.2 °F 76% 29.82 in 2.0 mi ENE 15.0 mph - N/A   Haze
12:27 PM -25.6 °F -52.1 °F -31.0 °F 76% 29.83 in 1.8 mi NE 15.0 mph - N/A   Haze
12:34 PM -25.6 °F -52.1 °F -31.0 °F 76% 29.83 in 2.0 mi NE 15.0 mph - N/A   Haze
12:44 PM -23.8 °F -49.8 °F -31.0 °F 69% 29.83 in 1.5 mi NE 15.0 mph - N/A   Haze
12:56 PM -24.0 °F -50.9 °F -29.9 °F 74% 29.86 in 1.5 mi NE 16.1 mph - N/A   Haze
1:11 PM -23.8 °F -50.7 °F -29.2 °F 76% 29.83 in 1.2 mi ENE 16.1 mph - N/A   Haze
1:19 PM -22.0 °F -48.4 °F -27.4 °F 76% 29.83 in 1.2 mi ENE 16.1 mph - N/A   Haze
1:31 PM -22.0 °F -47.5 °F -27.4 °F 76% 29.84 in 1.5 mi ENE 15.0 mph - N/A   Haze
1:44 PM -22.0 °F -47.5 °F -27.4 °F 76% 29.84 in 2.0 mi ENE 15.0 mph - N/A   Haze
1:56 PM -22.0 °F -49.1 °F -27.9 °F 74% 29.85 in 1.5 mi NE 17.3 mph - N/A   Haze
2:06 PM -20.2 °F -46.8 °F -27.4 °F 69% 29.83 in 1.2 mi NE 17.3 mph - N/A   Haze
2:16 PM -20.2 °F -46.8 °F -27.4 °F 69% 29.83 in 1.5 mi NE 17.3 mph - N/A   Haze
2:29 PM -20.2 °F -47.5 °F -27.4 °F 69% 29.84 in 2.5 mi ENE 18.4 mph - N/A   Haze
2:56 PM -22.0 °F -47.5 °F -27.4 °F 76% 29.84 in 2.5 mi ENE 15.0 mph - N/A   Haze
3:07 PM -22.0 °F -47.5 °F -27.4 °F 76% 29.84 in 3.0 mi ENE 15.0 mph - N/A   Haze
3:56 PM -22.9 °F -45.8 °F -28.8 °F 74% 29.86 in 6.0 mi NE 11.5 mph - N/A   Haze
4:56 PM -22.0 °F -47.5 °F -27.9 °F 74% 29.86 in 7.0 mi ENE 15.0 mph - N/A   Clear
5:56 PM -22.0 °F -44.7 °F -27.9 °F 74% 29.87 in 7.0 mi NE 11.5 mph - N/A   Clear
6:56 PM -22.0 °F -44.7 °F -28.8 °F 71% 29.87 in 10.0 mi ENE 11.5 mph - N/A   Clear
7:56 PM -22.9 °F -45.8 °F -28.8 °F 74% 29.88 in 10.0 mi NE 11.5 mph - N/A   Clear
8:25 PM -20.2 °F -43.4 °F -27.4 °F 69% 29.87 in 10.0 mi ENE 12.7 mph - N/A   Mostly Cloudy
8:56 PM -18.9 °F -41.8 °F -26.0 °F 70% 29.90 in 10.0 mi NE 12.7 mph - N/A   Mostly Cloudy
9:48 PM -22.0 °F -45.7 °F -27.4 °F 76% 29.89 in 10.0 mi NE 12.7 mph - N/A   Scattered Clouds
9:56 PM -22.0 °F -45.7 °F -27.9 °F 74% 29.91 in 10.0 mi NE 12.7 mph - N/A   Scattered Clouds
10:56 PM -20.9 °F -44.3 °F -26.9 °F 74% 29.91 in 10.0 mi NE 12.7 mph - N/A   Partly Cloudy
11:56 PM -19.8 °F -43.9 °F -26.9 °F 70% 29.92 in 10.0 mi NE 13.8 mph - N/A   Clear